Retour au catalogue

COSMOS 2499 DEB

LostPO
NORAD 55730·DEBRIS·🇷🇺 Russia

Lancé May 23, 2014 depuis Plesetsk Cosmodrome

Loading…

Prochains Passages (prochaines 24 heures)

TLE

PériméSource: Space-Track

Époque: Jan 5, 2025, 20:47 UTC

1 55730U 14028AS  25005.86633413  .00012233  00000-0  35254-1 0  9992
2 55730  82.1528 217.0201 0193008 138.4768 223.1193 13.03648055 93074

Suivez COSMOS 2499 DEB en temps réel avec AllMySat

Download on the App Store